User: anonymous   Login
Location: Unspecified
(0.0000°N, 0.0000°E)
Time: 06:46:50
(UTC+00:00)
Language:

NNS O-31 - Orbit

View from above orbital plane
View from above orbital plane
View from above satellite
View from above satellite

Ground track
Ground track

The orbit data is extracted from the following two-line orbital elements,

1 19420U 88074B   18109.81666132 +.00000044 +00000-0 +61256-4 0  9997
2 19420 089.9939 018.5907 0092822 288.7848 135.4943 13.42198143451693
Epoch (UTC): 19 April 2018 19:35:59
Eccentricity: 0.0092822
inclination: 89.9939°
perigee height: 1031 km
apogee height: 1170 km
right ascension of ascending node: 18.5907°
argument of perigee: 288.7848°
revolutions per day: 13.42198143
mean anomaly at epoch: 135.4943°
orbit number at epoch: 45169

The dashed part of the orbit path shows where the satellite is in the earth's shadow,  

DLR